This demonstration page uses our WeatherBlox Daily Observations layout. Learn more.

Left ArrowRight Arrow

Hourly Observations for April 22, 2020

Temp ( °F °C ) Dew Point ( °F °C ) Humidity (%) Winds ( mph kmh ) Pressure ( in mb ) Visibility ( mi km ) Precip ( " mm )
12:52 am 00:52 Mostly Cloudy 61 16.1 37 2.8 41 41 S 17 28 29.85 1011 10 16 0.00 0.00
1:52 am 01:52 Mostly Cloudy 62 16.7 37 2.8 40 40 S 14 22 29.85 1011 10 16 0.00 0.00
2:52 am 02:52 Partly Cloudy 60 15.6 37 2.8 42 42 S 17 28 29.83 1010 10 16 0.00 0.00
3:52 am 03:52 Partly Cloudy 59 15 37 2.8 44 44 S 13 20 29.83 1010 10 16 0.00 0.00
4:52 am 04:52 Mostly Clear 58 14.4 38 3.3 48 48 S 12 19 29.82 1010 10 16 0.00 0.00
5:52 am 05:52 Partly Cloudy 55 12.8 38 3.3 53 53 SE 12 19 29.82 1010 10 16 0.00 0.00
6:52 am 06:52 Partly Cloudy 55 12.8 39 3.9 55 55 S 10 17 29.80 1009 10 16 0.00 0.00
7:52 am 07:52 Mostly Cloudy 55 12.8 41 5 59 59 S 8 13 29.81 1010 10 16 0.00 0.00
8:52 am 08:52 Mostly Cloudy 62 16.7 43 6.1 50 50 SSW 9 15 29.81 1009 10 16 0.00 0.00
9:52 am 09:52 Cloudy 67 19.4 45 7.2 45 45 SW 10 17 29.77 1008 10 16 0.00 0.00
10:52 am 10:52 Cloudy 70 21.1 46 7.8 42 42 SW 9 15 29.77 1008 10 16 0.00 0.00
11:52 am 11:52 Cloudy 74 23.3 46 7.8 37 37 SW 15 24 29.76 1008 10 16 0.00 0.00
12:52 pm 12:52 Cloudy 77 25 45 7.2 32 32 SSW 15 24 29.72 1007 10 16 0.00 0.00
1:52 pm 13:52 Cloudy 78 25.6 45 7.2 31 31 SW 12 19 29.69 1006 10 16 0.00 0.00
2:52 pm 14:52 Cloudy 79 26.1 45 7.2 30 30 VRB 6 9 29.67 1005 10 16 0.00 0.00
3:52 pm 15:52 Cloudy 79 26.1 46 7.8 31 31 SSW 9 15 29.65 1004 10 16 0.00 0.00
4:52 pm 16:52 Cloudy with Light Rain 77 25 46 7.8 33 33 Calm 29.63 1003 10 16 0.00 0.00
5:52 pm 17:52 Cloudy 77 25 44 6.7 31 31 S 3 6 29.63 1003 10 16 0.00 0.00
6:52 pm 18:52 Cloudy 73 22.8 49 9.4 43 43 S 18 30 29.64 1004 10 16 0.00 0.00
7:52 pm 19:52 Cloudy 69 20.6 50 10 51 51 S 14 22 29.65 1004 10 16 0.00 0.00
8:52 pm 20:52 Cloudy 67 19.4 51 10.6 57 57 SSW 10 17 29.66 1004 10 16 0.00 0.00
9:52 pm 21:52 Cloudy 65 18.3 52 11.1 63 63 SSW 12 19 29.68 1005 10 16 0.00 0.00
10:52 pm 22:52 Cloudy 63 17.2 52 11.1 68 68 SSW 9 15 29.69 1005 10 16 0.00 0.00
11:52 pm 23:52 Cloudy 61 16.1 52 11.1 72 72 Calm 29.67 1005 10 16 0.00 0.00

Powered by AerisWeather